datetime,min air temp
1990-10-01,37.4
1990-10-02,27.86
1990-10-03,35.96
1990-10-04,32.9
1990-10-05,28.22
1990-10-06,20.3
1990-10-07,19.58
1990-10-08,24.98
1990-10-09,29.12
1990-10-10,24.8
1990-10-11,23.18
1990-10-12,30.56
1990-10-13,26.42
1990-10-14,26.42
1990-10-15,39.2
1990-10-16,26.06
1990-10-17,27.68
1990-10-18,30.74
1990-10-19,23.9
1990-10-20,22.46
1990-10-21,32.36
1990-10-22,30.2
1990-10-23,29.12
1990-10-24,34.7
1990-10-25,41.72
1990-10-26,35.78
1990-10-27,33.98
1990-10-28,28.04
1990-10-29,27.32
1990-10-30,35.06
1990-10-31,27.14
1990-11-01,16.7
1990-11-02,15.8
1990-11-03,28.76
1990-11-04,30.2
1990-11-05,24.8
1990-11-06,18.68
1990-11-07,26.6
1990-11-08,37.94
1990-11-09,32.18
1990-11-10,32.0
1990-11-11,30.02
1990-11-12,35.06
1990-11-13,29.3
1990-11-14,21.02
1990-11-15,19.22
1990-11-16,23.54
1990-11-17,27.32
1990-11-18,30.38
1990-11-19,22.82
1990-11-20,23.18
1990-11-21,29.3
1990-11-22,30.38
1990-11-23,31.64
1990-11-24,34.34
1990-11-25,23.36
1990-11-26,20.3
1990-11-27,20.3
1990-11-28,15.62
1990-11-29,24.98
1990-11-30,18.68
1990-12-01,18.5
1990-12-02,23.54
1990-12-03,20.66
1990-12-04,25.52
1990-12-05,13.82
1990-12-06,17.06
1990-12-07,19.4
1990-12-08,34.52
1990-12-09,35.42
1990-12-10,26.6
1990-12-11,15.98
1990-12-12,16.16
1990-12-13,9.32
1990-12-14,14.54
1990-12-15,21.38
1990-12-16,21.74
1990-12-17,26.6
1990-12-18,15.62
1990-12-19,-7.96
1990-12-20,-22.54
1990-12-21,-25.96
1990-12-22,-11.74
1990-12-23,2.12
1990-12-24,3.02
1990-12-25,10.58
1990-12-26,17.78
1990-12-27,15.08
1990-12-28,11.48
1990-12-29,-6.7
1990-12-30,0.32
1990-12-31,9.32
1991-01-01,14.18
1991-01-02,12.92
1991-01-03,18.5
1991-01-04,10.22
1991-01-05,12.02
1991-01-06,26.96
1991-01-07,25.16
1991-01-08,18.68
1991-01-09,18.5
1991-01-10,30.2
1991-01-11,32.18
1991-01-12,33.26
1991-01-13,32.36
1991-01-14,31.28
1991-01-15,23.54
1991-01-16,22.28
1991-01-17,24.62
1991-01-18,26.24
1991-01-19,15.62
1991-01-20,17.06
1991-01-21,20.66
1991-01-22,17.06
1991-01-23,15.62
1991-01-24,9.32
1991-01-25,10.58
1991-01-26,14.9
1991-01-27,10.58
1991-01-28,7.7
1991-01-29,7.7
1991-01-30,13.46
1991-01-31,33.08
1991-02-01,33.26
1991-02-02,32.0
1991-02-03,32.0
1991-02-04,33.44
1991-02-05,27.14
1991-02-06,26.6
1991-02-07,25.52
1991-02-08,26.96
1991-02-09,25.34
1991-02-10,24.44
1991-02-11,30.02
1991-02-12,27.68
1991-02-13,31.28
1991-02-14,30.74
1991-02-15,32.0
1991-02-16,28.22
1991-02-17,26.78
1991-02-18,25.16
1991-02-19,29.48
1991-02-20,26.06
1991-02-21,22.82
1991-02-22,22.28
1991-02-23,24.98
1991-02-24,26.06
1991-02-25,26.06
1991-02-26,27.32
1991-02-27,26.24
1991-02-28,27.5
1991-03-01,29.66
1991-03-02,29.66
1991-03-03,31.82
1991-03-04,21.02
1991-03-05,17.96
1991-03-06,19.22
1991-03-07,9.68
1991-03-08,11.48
1991-03-09,24.26
1991-03-10,18.68
1991-03-11,15.98
1991-03-12,23.72
1991-03-13,20.84
1991-03-14,21.38
1991-03-15,19.58
1991-03-16,16.7
1991-03-17,25.7
1991-03-18,20.66
1991-03-19,15.26
1991-03-20,14.72
1991-03-21,21.38
1991-03-22,17.96
1991-03-23,26.06
1991-03-24,22.28
1991-03-25,22.82
1991-03-26,18.86
1991-03-27,14.18
1991-03-28,17.06
1991-03-29,19.58
1991-03-30,25.34
1991-03-31,27.32
1991-04-01,26.06
1991-04-02,26.96
1991-04-03,30.56
1991-04-04,33.98
1991-04-05,27.86
1991-04-06,27.86
1991-04-07,20.66
1991-04-08,14.54
1991-04-09,19.58
1991-04-10,15.62
1991-04-11,13.1
1991-04-12,20.12
1991-04-13,24.08
1991-04-14,20.3
1991-04-15,25.88
1991-04-16,27.14
1991-04-17,23.0
1991-04-18,25.52
1991-04-19,26.42
1991-04-20,32.0
1991-04-21,31.82
1991-04-22,31.1
1991-04-23,31.1
1991-04-24,21.92
1991-04-25,23.0
1991-04-26,23.18
1991-04-27,17.78
1991-04-28,22.82
1991-04-29,18.68
1991-04-30,26.78
1991-05-01,33.62
1991-05-02,27.5
1991-05-03,25.16
1991-05-04,25.88
1991-05-05,32.54
1991-05-06,31.1
1991-05-07,33.26
1991-05-08,25.88
1991-05-09,23.72
1991-05-10,26.96
1991-05-11,31.46
1991-05-12,33.98
1991-05-13,32.0
1991-05-14,29.84
1991-05-15,27.14
1991-05-16,31.1
1991-05-17,27.5
1991-05-18,27.14
1991-05-19,26.06
1991-05-20,33.08
1991-05-21,36.14
1991-05-22,29.84
1991-05-23,29.84
1991-05-24,30.38
1991-05-25,26.96
1991-05-26,24.62
1991-05-27,25.34
1991-05-28,30.02
1991-05-29,27.5
1991-05-30,28.4
1991-05-31,27.5
1991-06-01,31.1
1991-06-02,33.8
1991-06-03,27.68
1991-06-04,24.62
1991-06-05,24.62
1991-06-06,28.4
1991-06-07,31.82
1991-06-08,32.54
1991-06-09,37.94
1991-06-10,42.62
1991-06-11,37.04
1991-06-12,28.58
1991-06-13,31.82
1991-06-14,26.78
1991-06-15,33.44
1991-06-16,29.84
1991-06-17,25.7
1991-06-18,36.14
1991-06-19,35.42
1991-06-20,32.54
1991-06-21,28.4
1991-06-22,29.66
1991-06-23,32.0
1991-06-24,39.2
1991-06-25,37.94
1991-06-26,37.22
1991-06-27,38.48
1991-06-28,41.9
1991-06-29,41.36
1991-06-30,36.5
1991-07-01,38.48
1991-07-02,48.56
1991-07-03,50.18
1991-07-04,46.4
1991-07-05,39.38
1991-07-06,36.14
1991-07-07,44.06
1991-07-08,39.92
1991-07-09,35.42
1991-07-10,32.54
1991-07-11,38.66
1991-07-12,44.6
1991-07-13,50.0
1991-07-14,40.46
1991-07-15,43.16
1991-07-16,46.94
1991-07-17,42.98
1991-07-18,36.5
1991-07-19,37.58
1991-07-20,39.2
1991-07-21,39.2
1991-07-22,46.76
1991-07-23,51.08
1991-07-24,48.2
1991-07-25,40.82
1991-07-26,32.9
1991-07-27,40.46
1991-07-28,44.6
1991-07-29,41.72
1991-07-30,40.28
1991-07-31,44.96
1991-08-01,33.62
1991-08-02,39.38
1991-08-03,44.42
1991-08-04,47.48
1991-08-05,48.74
1991-08-06,44.96
1991-08-07,50.72
1991-08-08,48.02
1991-08-09,37.22
1991-08-10,27.86
1991-08-11,32.0
1991-08-12,39.38
1991-08-13,41.72
1991-08-14,41.54
1991-08-15,48.56
1991-08-16,46.22
1991-08-17,45.86
1991-08-18,45.5
1991-08-19,48.38
1991-08-20,49.82
1991-08-21,46.4
1991-08-22,47.48
1991-08-23,40.82
1991-08-24,37.76
1991-08-25,32.9
1991-08-26,36.68
1991-08-27,36.14
1991-08-28,45.5
1991-08-29,45.5
1991-08-30,42.08
1991-08-31,39.38
1991-09-01,40.28
1991-09-02,34.16
1991-09-03,44.96
1991-09-04,47.3
1991-09-05,50.36
1991-09-06,45.86
1991-09-07,37.94
1991-09-08,28.04
1991-09-09,28.4
1991-09-10,29.84
1991-09-11,33.44
1991-09-12,42.98
1991-09-13,37.04
1991-09-14,27.68
1991-09-15,37.22
1991-09-16,44.06
1991-09-17,42.8
1991-09-18,48.74
1991-09-19,45.5
1991-09-20,26.6
1991-09-21,22.82
1991-09-22,33.08
1991-09-23,36.14
1991-09-24,44.96
1991-09-25,46.94
1991-09-26,43.88
1991-09-27,41.72
1991-09-28,39.56
1991-09-29,40.82
1991-09-30,41.36
1991-10-01,40.64
1991-10-02,37.22
1991-10-03,34.16
1991-10-04,37.58
1991-10-05,41.72
1991-10-06,38.3
1991-10-07,32.54
1991-10-08,34.34
1991-10-09,35.6
1991-10-10,39.02
1991-10-11,41.72
1991-10-12,37.58
1991-10-13,36.14
1991-10-14,40.82
1991-10-15,40.1
1991-10-16,38.84
1991-10-17,26.96
1991-10-18,32.54
1991-10-19,31.46
1991-10-20,32.0
1991-10-21,33.44
1991-10-22,21.92
1991-10-23,27.5
1991-10-24,28.94
1991-10-25,30.92
1991-10-26,25.52
1991-10-27,18.5
1991-10-28,15.44
1991-10-29,17.78
1991-10-30,13.64
1991-10-31,24.62
1991-11-01,26.6
1991-11-02,32.18
1991-11-03,31.82
1991-11-04,37.4
1991-11-05,41.0
1991-11-06,44.78
1991-11-07,36.5
1991-11-08,37.94
1991-11-09,28.76
1991-11-10,28.58
1991-11-11,34.52
1991-11-12,37.76
1991-11-13,26.6
1991-11-14,18.32
1991-11-15,15.98
1991-11-16,27.86
1991-11-17,28.94
1991-11-18,27.86
1991-11-19,29.12
1991-11-20,27.32
1991-11-21,12.2
1991-11-22,10.76
1991-11-23,24.26
1991-11-24,35.24
1991-11-25,33.08
1991-11-26,27.86
1991-11-27,23.72
1991-11-28,17.42
1991-11-29,8.06
1991-11-30,6.08
1991-12-01,17.6
1991-12-02,28.22
1991-12-03,21.74
1991-12-04,23.36
1991-12-05,32.0
1991-12-06,28.04
1991-12-07,18.86
1991-12-08,16.16
1991-12-09,18.5
1991-12-10,17.06
1991-12-11,14.36
1991-12-12,25.88
1991-12-13,19.22
1991-12-14,20.66
1991-12-15,23.54
1991-12-16,24.08
1991-12-17,29.12
1991-12-18,23.72
1991-12-19,15.26
1991-12-20,14.72
1991-12-21,21.74
1991-12-22,20.3
1991-12-23,22.82
1991-12-24,20.84
1991-12-25,26.78
1991-12-26,34.34
1991-12-27,35.6
1991-12-28,24.44
1991-12-29,25.52
1991-12-30,19.76
1991-12-31,19.58
1992-01-01,16.88
1992-01-02,29.12
1992-01-03,27.68
1992-01-04,24.62
1992-01-05,27.86
1992-01-06,22.28
1992-01-07,16.7
1992-01-08,14.36
1992-01-09,24.8
1992-01-10,25.16
1992-01-11,9.32
1992-01-12,7.34
1992-01-13,19.76
1992-01-14,20.48
1992-01-15,28.4
1992-01-16,26.24
1992-01-17,25.34
1992-01-18,21.38
1992-01-19,20.12
1992-01-20,16.52
1992-01-21,20.12
1992-01-22,17.42
1992-01-23,26.06
1992-01-24,34.7
1992-01-25,22.82
1992-01-26,22.28
1992-01-27,31.46
1992-01-28,32.18
1992-01-29,31.64
1992-01-30,36.14
1992-01-31,30.56
1992-02-01,25.88
1992-02-02,22.46
1992-02-03,24.62
1992-02-04,24.62
1992-02-05,22.28
1992-02-06,24.26
1992-02-07,23.72
1992-02-08,22.28
1992-02-09,29.66
1992-02-10,33.98
1992-02-11,33.26
1992-02-12,33.08
1992-02-13,28.76
1992-02-14,26.42
1992-02-15,15.98
1992-02-16,24.62
1992-02-17,24.62
1992-02-18,28.94
1992-02-19,33.08
1992-02-20,31.1
1992-02-21,32.54
1992-02-22,26.06
1992-02-23,23.0
1992-02-24,28.58
1992-02-25,30.92
1992-02-26,30.2
1992-02-27,27.86
1992-02-28,28.04
1992-02-29,27.32
1992-03-01,28.04
1992-03-02,28.04
1992-03-03,26.78
1992-03-04,26.24
1992-03-05,26.6
1992-03-06,25.52
1992-03-07,27.5
1992-03-08,24.26
1992-03-09,21.2
1992-03-10,24.98
1992-03-11,26.6
1992-03-12,26.78
1992-03-13,26.42
1992-03-14,27.14
1992-03-15,26.78
1992-03-16,26.6
1992-03-17,23.72
1992-03-18,20.48
1992-03-19,22.64
1992-03-20,25.34
1992-03-21,26.06
1992-03-22,26.42
1992-03-23,28.76
1992-03-24,26.96
1992-03-25,30.74
1992-03-26,26.06
1992-03-27,23.36
1992-03-28,26.96
1992-03-29,30.74
1992-03-30,30.92
1992-03-31,28.4
1992-04-01,29.12
1992-04-02,34.7
1992-04-03,30.56
1992-04-04,23.36
1992-04-05,22.1
1992-04-06,22.82
1992-04-07,22.82
1992-04-08,31.1
1992-04-09,36.32
1992-04-10,34.16
1992-04-11,38.66
1992-04-12,34.88
1992-04-13,34.16
1992-04-14,30.92
1992-04-15,30.92
1992-04-16,39.74
1992-04-17,31.64
1992-04-18,29.3
1992-04-19,27.68
1992-04-20,33.8
1992-04-21,24.44
1992-04-22,19.94
1992-04-23,21.2
1992-04-24,38.12
1992-04-25,34.34
1992-04-26,36.14
1992-04-27,36.14
1992-04-28,44.96
1992-04-29,35.6
1992-04-30,30.56
1992-05-01,24.26
1992-05-02,29.3
1992-05-03,32.72
1992-05-04,37.4
1992-05-05,40.46
1992-05-06,42.98
1992-05-07,42.62
1992-05-08,34.34
1992-05-09,28.76
1992-05-10,35.6
1992-05-11,28.4
1992-05-12,26.42
1992-05-13,37.76
1992-05-14,35.96
1992-05-15,33.44
1992-05-16,32.18
1992-05-17,39.38
1992-05-18,36.5
1992-05-19,37.94
1992-05-20,27.32
1992-05-21,23.0
1992-05-22,32.54
1992-05-23,37.76
1992-05-24,42.08
1992-05-25,45.68
1992-05-26,35.78
1992-05-27,26.96
1992-05-28,
1992-05-29,33.8
1992-05-30,42.8
1992-05-31,41.72
1992-06-01,43.52
1992-06-02,37.04
1992-06-03,37.76
1992-06-04,32.0
1992-06-05,29.12
1992-06-06,33.8
1992-06-07,34.34
1992-06-08,31.82
1992-06-09,36.68
1992-06-10,33.98
1992-06-11,35.42
1992-06-12,32.0
1992-06-13,31.64
1992-06-14,33.8
1992-06-15,34.7
1992-06-16,39.2
1992-06-17,33.62
1992-06-18,40.1
1992-06-19,41.18
1992-06-20,41.72
1992-06-21,44.96
1992-06-22,51.08
1992-06-23,50.9
1992-06-24,48.2
1992-06-25,51.98
1992-06-26,46.04
1992-06-27,47.48
1992-06-28,39.92
1992-06-29,38.84
1992-06-30,40.64
1992-07-01,42.44
1992-07-02,40.64
1992-07-03,38.12
1992-07-04,42.26
1992-07-05,43.34
1992-07-06,37.58
1992-07-07,31.28
1992-07-08,35.42
1992-07-09,33.26
1992-07-10,40.28
1992-07-11,45.86
1992-07-12,40.46
1992-07-13,43.52
1992-07-14,36.68
1992-07-15,38.84
1992-07-16,45.14
1992-07-17,50.0
1992-07-18,48.02
1992-07-19,47.48
1992-07-20,47.12
1992-07-21,40.28
1992-07-22,41.0
1992-07-23,35.78
1992-07-24,34.7
1992-07-25,40.82
1992-07-26,46.58
1992-07-27,46.4
1992-07-28,45.5
1992-07-29,42.08
1992-07-30,47.48
1992-07-31,48.74
1992-08-01,45.86
1992-08-02,40.82
1992-08-03,44.06
1992-08-04,38.48
1992-08-05,34.88
1992-08-06,40.1
1992-08-07,47.66
1992-08-08,38.3
1992-08-09,34.34
1992-08-10,45.14
1992-08-11,53.96
1992-08-12,56.84
1992-08-13,53.42
1992-08-14,53.78
1992-08-15,54.68
1992-08-16,51.08
1992-08-17,56.84
1992-08-18,47.66
1992-08-19,47.66
1992-08-20,38.66
1992-08-21,37.04
1992-08-22,37.94
1992-08-23,30.38
1992-08-24,33.98
1992-08-25,34.52
1992-08-26,38.12
1992-08-27,41.36
1992-08-28,40.82
1992-08-29,38.48
1992-08-30,36.68
1992-08-31,41.36
1992-09-01,
1992-09-02,38.84
1992-09-03,37.4
1992-09-04,42.62
1992-09-05,30.74
1992-09-06,27.86
1992-09-07,27.86
1992-09-08,32.0
1992-09-09,33.62
1992-09-10,45.5
1992-09-11,42.8
1992-09-12,26.6
1992-09-13,21.56
1992-09-14,28.4
1992-09-15,38.84
1992-09-16,33.8
1992-09-17,33.08
1992-09-18,37.94
1992-09-19,36.5
1992-09-20,34.52
1992-09-21,41.54
1992-09-22,48.02
1992-09-23,46.04
1992-09-24,34.88
1992-09-25,33.98
1992-09-26,34.34
1992-09-27,32.9
1992-09-28,36.14
1992-09-29,41.0
1992-09-30,45.5
1992-10-01,35.78
1992-10-02,36.14
1992-10-03,30.02
1992-10-04,27.86
1992-10-05,29.84
1992-10-06,29.12
1992-10-07,30.38
1992-10-08,32.54
1992-10-09,27.86
1992-10-10,37.04
1992-10-11,39.92
1992-10-12,36.68
1992-10-13,24.44
1992-10-14,18.86
1992-10-15,23.72
1992-10-16,30.74
1992-10-17,32.0
1992-10-18,35.06
1992-10-19,36.14
1992-10-20,40.82
1992-10-21,34.7
1992-10-22,38.12
1992-10-23,32.54
1992-10-24,31.46
1992-10-25,32.54
1992-10-26,32.18
1992-10-27,31.64
1992-10-28,34.34
1992-10-29,31.82
1992-10-30,31.64
1992-10-31,31.82
1992-11-01,35.96
1992-11-02,26.78
1992-11-03,26.96
1992-11-04,29.3
1992-11-05,26.78
1992-11-06,32.9
1992-11-07,27.5
1992-11-08,24.8
1992-11-09,15.08
1992-11-10,10.22
1992-11-11,20.12
1992-11-12,30.74
1992-11-13,29.84
1992-11-14,29.48
1992-11-15,27.86
1992-11-16,28.76
1992-11-17,29.66
1992-11-18,24.44
1992-11-19,23.0
1992-11-20,15.08
1992-11-21,27.32
1992-11-22,23.54
1992-11-23,11.84
1992-11-24,11.48
1992-11-25,27.32
1992-11-26,27.14
1992-11-27,28.58
1992-11-28,17.24
1992-11-29,12.92
1992-11-30,30.38
1992-12-01,32.36
1992-12-02,21.02
1992-12-03,11.3
1992-12-04,13.82
1992-12-05,8.78
1992-12-06,26.6
1992-12-07,24.26
1992-12-08,24.08
1992-12-09,22.82
1992-12-10,15.98
1992-12-11,17.78
1992-12-12,13.64
1992-12-13,14.18
1992-12-14,18.68
1992-12-15,12.38
1992-12-16,14.54
1992-12-17,18.32
1992-12-18,10.76
1992-12-19,9.32
1992-12-20,26.96
1992-12-21,22.1
1992-12-22,18.32
1992-12-23,16.34
1992-12-24,14.0
1992-12-25,12.56
1992-12-26,29.48
1992-12-27,27.86
1992-12-28,23.36
1992-12-29,17.42
1992-12-30,17.06
1992-12-31,24.08
1993-01-01,10.58
1993-01-02,-3.64
1993-01-03,17.42
1993-01-04,20.12
1993-01-05,20.12
1993-01-06,10.94
1993-01-07,23.72
1993-01-08,17.6
1993-01-09,5.54
1993-01-10,7.34
1993-01-11,15.8
1993-01-12,13.28
1993-01-13,21.02
1993-01-14,24.62
1993-01-15,12.56
1993-01-16,14.0
1993-01-17,12.2
1993-01-18,14.9
1993-01-19,26.78
1993-01-20,27.14
1993-01-21,23.54
1993-01-22,7.7
1993-01-23,6.08
1993-01-24,26.06
1993-01-25,22.28
1993-01-26,20.66
1993-01-27,19.94
1993-01-28,20.12
1993-01-29,13.82
1993-01-30,21.2
1993-01-31,21.56
1993-02-01,17.24
1993-02-02,27.86
1993-02-03,27.86
1993-02-04,29.66
1993-02-05,28.94
1993-02-06,24.98
1993-02-07,28.76
1993-02-08,28.94
1993-02-09,26.6
1993-02-10,23.54
1993-02-11,25.52
1993-02-12,15.8
1993-02-13,10.94
1993-02-14,7.16
1993-02-15,-3.46
1993-02-16,-10.66
1993-02-17,8.42
1993-02-18,21.2
1993-02-19,20.48
1993-02-20,15.98
1993-02-21,16.16
1993-02-22,16.7
1993-02-23,14.9
1993-02-24,0.68
1993-02-25,-3.46
1993-02-26,0.5
1993-02-27,3.38
1993-02-28,12.2
1993-03-01,20.84
1993-03-02,26.96
1993-03-03,30.38
1993-03-04,32.0
1993-03-05,27.5
1993-03-06,28.76
1993-03-07,27.32
1993-03-08,28.4
1993-03-09,34.52
1993-03-10,29.66
1993-03-11,27.32
1993-03-12,33.8
1993-03-13,27.68
1993-03-14,32.0
1993-03-15,31.64
1993-03-16,32.18
1993-03-17,35.24
1993-03-18,33.08
1993-03-19,31.64
1993-03-20,26.96
1993-03-21,24.26
1993-03-22,33.44
1993-03-23,29.84
1993-03-24,21.02
1993-03-25,19.58
1993-03-26,22.1
1993-03-27,22.46
1993-03-28,25.88
1993-03-29,26.42
1993-03-30,29.12
1993-03-31,30.2
1993-04-01,26.78
1993-04-02,26.78
1993-04-03,31.82
1993-04-04,27.5
1993-04-05,23.36
1993-04-06,28.22
1993-04-07,30.38
1993-04-08,29.66
1993-04-09,26.96
1993-04-10,23.18
1993-04-11,22.1
1993-04-12,12.2
1993-04-13,25.52
1993-04-14,21.2
1993-04-15,27.32
1993-04-16,27.86
1993-04-17,28.4
1993-04-18,24.98
1993-04-19,20.12
1993-04-20,28.4
1993-04-21,31.28
1993-04-22,28.76
1993-04-23,29.66
1993-04-24,30.92
1993-04-25,27.86
1993-04-26,25.88
1993-04-27,24.8
1993-04-28,27.86
1993-04-29,31.46
1993-04-30,29.66
1993-05-01,28.4
1993-05-02,34.16
1993-05-03,28.04
1993-05-04,27.14
1993-05-05,26.6
1993-05-06,29.3
1993-05-07,24.62
1993-05-08,28.94
1993-05-09,26.78
1993-05-10,36.14
1993-05-11,31.28
1993-05-12,32.0
1993-05-13,30.74
1993-05-14,33.98
1993-05-15,30.92
1993-05-16,34.7
1993-05-17,37.04
1993-05-18,39.56
1993-05-19,44.06
1993-05-20,
1993-05-21,38.12
1993-05-22,33.26
1993-05-23,32.54
1993-05-24,41.18
1993-05-25,35.6
1993-05-26,34.88
1993-05-27,37.94
1993-05-28,34.88
1993-05-29,33.44
1993-05-30,42.98
1993-05-31,38.66
1993-06-01,34.34
1993-06-02,34.16
1993-06-03,33.44
1993-06-04,37.76
1993-06-05,31.82
1993-06-06,36.68
1993-06-07,33.8
1993-06-08,29.66
1993-06-09,36.86
1993-06-10,37.04
1993-06-11,30.92
1993-06-12,23.9
1993-06-13,32.0
1993-06-14,40.46
1993-06-15,37.94
1993-06-16,34.34
1993-06-17,35.24
1993-06-18,41.0
1993-06-19,44.06
1993-06-20,43.88
1993-06-21,32.18
1993-06-22,29.84
1993-06-23,25.7
1993-06-24,32.0
1993-06-25,41.9
1993-06-26,42.8
1993-06-27,39.02
1993-06-28,33.08
1993-06-29,28.76
1993-06-30,33.08
1993-07-01,34.88
1993-07-02,39.2
1993-07-03,37.4
1993-07-04,37.4
1993-07-05,29.12
1993-07-06,29.48
1993-07-07,28.4
1993-07-08,33.8
1993-07-09,32.0
1993-07-10,28.04
1993-07-11,33.62
1993-07-12,26.96
1993-07-13,32.0
1993-07-14,35.42
1993-07-15,37.76
1993-07-16,33.8
1993-07-17,36.32
1993-07-18,31.28
1993-07-19,43.34
1993-07-20,40.64
1993-07-21,31.1
1993-07-22,
1993-07-23,43.7
1993-07-24,34.52
1993-07-25,37.22
1993-07-26,33.98
1993-07-27,40.28
1993-07-28,45.14
1993-07-29,35.42
1993-07-30,32.18
1993-07-31,37.04
1993-08-01,42.8
1993-08-02,45.5
1993-08-03,
1993-08-04,49.46
1993-08-05,45.86
1993-08-06,41.9
1993-08-07,40.46
1993-08-08,39.02
1993-08-09,41.9
1993-08-10,39.38
1993-08-11,40.1
1993-08-12,37.76
1993-08-13,33.8
1993-08-14,38.84
1993-08-15,39.02
1993-08-16,38.12
1993-08-17,35.06
1993-08-18,
1993-08-19,49.82
1993-08-20,46.04
1993-08-21,40.46
1993-08-22,39.02
1993-08-23,40.82
1993-08-24,
1993-08-25,26.78
1993-08-26,30.02
1993-08-27,35.78
1993-08-28,33.62
1993-08-29,36.14
1993-08-30,41.9
1993-08-31,41.36
1993-09-01,41.0
1993-09-02,40.28
1993-09-03,42.98
1993-09-04,42.98
1993-09-05,43.52
1993-09-06,46.58
1993-09-07,44.78
1993-09-08,45.5
1993-09-09,46.4
1993-09-10,46.76
1993-09-11,41.0
1993-09-12,26.42
1993-09-13,30.02
1993-09-14,35.78
1993-09-15,29.12
1993-09-16,32.0
1993-09-17,30.92
1993-09-18,30.92
1993-09-19,30.56
1993-09-20,25.7
1993-09-21,23.54
1993-09-22,27.32
1993-09-23,
1993-09-24,30.56
1993-09-25,32.0
1993-09-26,38.12
1993-09-27,41.18
1993-09-28,42.26
1993-09-29,44.24
1993-09-30,41.54
1993-10-01,
1993-10-02,37.04
1993-10-03,39.74
1993-10-04,45.5
1993-10-05,40.64
1993-10-06,37.94
1993-10-07,28.4
1993-10-08,25.7
1993-10-09,32.54
1993-10-10,
1993-10-11,36.14
1993-10-12,38.66
1993-10-13,37.58
1993-10-14,32.72
1993-10-15,35.78
1993-10-16,
1993-10-17,28.76
1993-10-18,28.76
1993-10-19,27.68
1993-10-20,30.38
1993-10-21,33.98
1993-10-22,31.1
1993-10-23,28.58
1993-10-24,
1993-10-25,28.22
1993-10-26,
1993-10-27,32.0
1993-10-28,32.54
1993-10-29,30.56
1993-10-30,34.52
1993-10-31,24.26
1993-11-01,19.4
1993-11-02,27.5
1993-11-03,26.06
1993-11-04,17.96
1993-11-05,23.54
1993-11-06,23.72
1993-11-07,21.2
1993-11-08,19.94
1993-11-09,26.78
1993-11-10,22.46
1993-11-11,23.36
1993-11-12,18.32
1993-11-13,18.32
1993-11-14,15.26
1993-11-15,21.02
1993-11-16,27.14
1993-11-17,26.42
1993-11-18,12.92
1993-11-19,
1993-11-20,17.78
1993-11-21,24.98
1993-11-22,
1993-11-23,5.9
1993-11-24,3.56
1993-11-25,9.14
1993-11-26,
1993-11-27,32.72
1993-11-28,33.44
1993-11-29,28.76
1993-11-30,
1993-12-01,27.68
1993-12-02,21.2
1993-12-03,28.94
1993-12-04,21.56
1993-12-05,18.5
1993-12-06,
1993-12-07,30.56
1993-12-08,27.86
1993-12-09,28.04
1993-12-10,38.84
1993-12-11,22.1
1993-12-12,17.42
1993-12-13,25.88
1993-12-14,24.62
1993-12-15,12.38
1993-12-16,
1993-12-17,9.68
1993-12-18,13.28
1993-12-19,
1993-12-20,18.68
1993-12-21,12.38
1993-12-22,12.56
1993-12-23,16.16
1993-12-24,25.52
1993-12-25,21.74
1993-12-26,24.08
1993-12-27,22.1
1993-12-28,24.62
1993-12-29,25.52
1993-12-30,29.3
1993-12-31,26.42
1994-01-01,31.1
1994-01-02,31.46
1994-01-03,32.54
1994-01-04,
1994-01-05,25.88
1994-01-06,17.24
1994-01-07,15.26
1994-01-08,29.48
1994-01-09,23.72
1994-01-10,18.68
1994-01-11,26.78
1994-01-12,25.7
1994-01-13,24.98
1994-01-14,
1994-01-15,
1994-01-16,17.06
1994-01-17,20.84
1994-01-18,
1994-01-19,21.92
1994-01-20,24.98
1994-01-21,36.68
1994-01-22,34.16
1994-01-23,32.18
1994-01-24,18.14
1994-01-25,
1994-01-26,12.92
1994-01-27,7.7
1994-01-28,11.3
1994-01-29,14.18
1994-01-30,14.72
1994-01-31,14.72
1994-02-01,
1994-02-02,9.14
1994-02-03,11.12
1994-02-04,11.12
1994-02-05,13.28
1994-02-06,17.06
1994-02-07,
1994-02-08,1.76
1994-02-09,25.34
1994-02-10,16.52
1994-02-11,
1994-02-12,9.32
1994-02-13,24.98
1994-02-14,24.98
1994-02-15,
1994-02-16,32.72
1994-02-17,20.66
1994-02-18,19.58
1994-02-19,20.12
1994-02-20,19.04
1994-02-21,19.4
1994-02-22,17.6
1994-02-23,26.96
1994-02-24,
1994-02-25,27.5
1994-02-26,30.2
1994-02-27,29.3
1994-02-28,32.54
1994-03-01,37.58
1994-03-02,34.7
1994-03-03,33.44
1994-03-04,31.1
1994-03-05,
1994-03-06,15.26
1994-03-07,25.7
1994-03-08,24.62
1994-03-09,
1994-03-10,25.88
1994-03-11,18.32
1994-03-12,23.9
1994-03-13,
1994-03-14,26.96
1994-03-15,25.88
1994-03-16,26.78
1994-03-17,25.7
1994-03-18,
1994-03-19,11.48
1994-03-20,14.54
1994-03-21,17.42
1994-03-22,7.16
1994-03-23,16.16
1994-03-24,22.28
1994-03-25,20.12
1994-03-26,22.1
1994-03-27,25.52
1994-03-28,29.48
1994-03-29,26.78
1994-03-30,30.2
1994-03-31,29.66
1994-04-01,28.4
1994-04-02,27.86
1994-04-03,27.14
1994-04-04,21.02
1994-04-05,20.84
1994-04-06,26.06
1994-04-07,25.34
1994-04-08,28.58
1994-04-09,26.42
1994-04-10,27.32
1994-04-11,26.42
1994-04-12,26.78
1994-04-13,26.96
1994-04-14,
1994-04-15,
1994-04-16,33.08
1994-04-17,36.32
1994-04-18,33.62
1994-04-19,36.86
1994-04-20,29.84
1994-04-21,28.04
1994-04-22,27.32
1994-04-23,27.32
1994-04-24,26.96
1994-04-25,28.22
1994-04-26,31.28
1994-04-27,30.74
1994-04-28,30.56
1994-04-29,28.94
1994-04-30,26.78
1994-05-01,25.34
1994-05-02,26.6
1994-05-03,33.08
1994-05-04,39.02
1994-05-05,37.76
1994-05-06,38.66
1994-05-07,38.3
1994-05-08,41.72
1994-05-09,37.76
1994-05-10,37.22
1994-05-11,38.12
1994-05-12,30.02
1994-05-13,26.42
1994-05-14,30.02
1994-05-15,31.64
1994-05-16,30.74
1994-05-17,30.2
1994-05-18,30.38
1994-05-19,36.68
1994-05-20,36.32
1994-05-21,32.54
1994-05-22,29.66
1994-05-23,33.98
1994-05-24,39.74
1994-05-25,41.0
1994-05-26,35.06
1994-05-27,30.92
1994-05-28,32.72
1994-05-29,33.44
1994-05-30,28.4
1994-05-31,37.04
1994-06-01,33.98
1994-06-02,35.6
1994-06-03,33.98
1994-06-04,40.28
1994-06-05,32.36
1994-06-06,31.64
1994-06-07,28.4
1994-06-08,27.14
1994-06-09,33.62
1994-06-10,38.84
1994-06-11,42.26
1994-06-12,44.06
1994-06-13,31.1
1994-06-14,29.48
1994-06-15,30.02
1994-06-16,26.78
1994-06-17,31.64
1994-06-18,33.98
1994-06-19,32.18
1994-06-20,40.28
1994-06-21,41.9
1994-06-22,42.44
1994-06-23,34.7
1994-06-24,32.9
1994-06-25,35.24
1994-06-26,37.4
1994-06-27,37.58
1994-06-28,40.64
1994-06-29,39.92
1994-06-30,39.38
1994-07-01,38.3
1994-07-02,34.88
1994-07-03,28.22
1994-07-04,31.64
1994-07-05,32.54
1994-07-06,30.2
1994-07-07,42.44
1994-07-08,46.58
1994-07-09,42.62
1994-07-10,35.78
1994-07-11,39.56
1994-07-12,33.26
1994-07-13,39.56
1994-07-14,38.12
1994-07-15,34.7
1994-07-16,44.06
1994-07-17,45.86
1994-07-18,39.92
1994-07-19,45.68
1994-07-20,51.62
1994-07-21,51.98
1994-07-22,51.8
1994-07-23,46.4
1994-07-24,46.94
1994-07-25,40.46
1994-07-26,39.92
1994-07-27,45.5
1994-07-28,45.32
1994-07-29,43.52
1994-07-30,39.92
1994-07-31,39.92
1994-08-01,44.96
1994-08-02,43.88
1994-08-03,44.24
1994-08-04,41.9
1994-08-05,41.18
1994-08-06,35.96
1994-08-07,39.74
1994-08-08,37.04
1994-08-09,33.08
1994-08-10,41.72
1994-08-11,40.82
1994-08-12,41.0
1994-08-13,42.8
1994-08-14,43.52
1994-08-15,37.76
1994-08-16,31.82
1994-08-17,32.18
1994-08-18,35.6
1994-08-19,38.48
1994-08-20,34.52
1994-08-21,34.7
1994-08-22,31.82
1994-08-23,39.2
1994-08-24,38.48
1994-08-25,39.74
1994-08-26,37.58
1994-08-27,40.28
1994-08-28,37.94
1994-08-29,34.16
1994-08-30,36.5
1994-08-31,35.96
1994-09-01,37.94
1994-09-02,36.68
1994-09-03,38.12
1994-09-04,33.8
1994-09-05,39.92
1994-09-06,41.9
1994-09-07,41.18
1994-09-08,39.92